StationID,Date,MaxTemp,MinTemp,Precipitation,Snowfall,SnowDepth
"CA001106767","1970-04-11",53.06,46.04,0.00,0.00,
"CA001106767","1970-04-12",51.08,37.04,0.00,0.00,
"CA001106767","1970-04-13",51.98,26.96,0.00,0.00,
"CA001106767","1970-04-14",59.00,32.00,0.00,0.00,
"CA001106767","1970-04-15",59.00,30.02,0.00,0.00,
"CA001106767","1970-04-16",49.10,35.06,0.00,0.00,
"CA001106767","1970-04-17",60.08,35.96,18.00,0.00,
"CA001106767","1970-04-18",53.96,42.08,135.00,0.00,
"CA001106767","1970-04-19",48.02,42.08,28.00,0.00,
"CA001106767","1970-04-20",53.96,42.08,38.00,0.00,
"CA001106767","1970-04-21",57.02,37.94,0.00,0.00,
"CA001106767","1970-04-22",57.02,44.06,79.00,0.00,
"CA001106767","1970-04-23",51.98,42.98,46.00,0.00,
"CA001106767","1970-04-24",53.06,41.00,10.00,0.00,
"CA001106767","1970-04-25",51.08,39.92,0.00,0.00,
"CA001106767","1970-04-26",51.98,32.00,0.00,0.00,
"CA001106767","1970-04-27",58.10,30.02,0.00,0.00,
"CA001106767","1970-04-28",60.08,32.00,48.00,0.00,
"CA001106767","1970-04-29",51.08,41.00,20.00,0.00,
"CA001106767","1970-04-30",59.00,42.08,0.00,0.00,
"CA001106767","1970-05-01",62.06,42.08,0.00,0.00,
"CA001106767","1970-05-02",62.06,39.02,0.00,0.00,
"CA001106767","1970-05-03",66.02,37.04,0.00,0.00,
"CA001106767","1970-05-04",60.98,41.00,0.00,0.00,
"CA001106767","1970-05-05",59.00,44.06,0.00,0.00,
"CA001106767","1970-05-06",60.08,32.00,0.00,0.00,
"CA001106767","1970-05-07",57.02,37.94,33.00,0.00,
"CA001106767","1970-05-08",55.04,46.04,58.00,0.00,
"CA001106767","1970-05-09",55.04,37.04,0.00,0.00,
"CA001106767","1970-05-10",51.98,39.92,30.00,0.00,
"CA001106767","1970-05-11",55.94,35.96,0.00,0.00,
"CA001106767","1970-05-12",59.00,33.08,0.00,0.00,
"CA001106767","1970-05-13",60.08,42.08,0.00,0.00,
"CA001106767","1970-05-14",60.08,44.96,0.00,0.00,
"CA001106767","1970-05-15",76.10,46.94,0.00,0.00,
"CA001106767","1970-05-16",66.02,46.04,33.00,0.00,
"CA001106767","1970-05-17",60.98,44.06,0.00,0.00,
"CA001106767","1970-05-18",55.94,35.06,0.00,0.00,
"CA001106767","1970-05-19",62.96,37.04,0.00,0.00,
"CA001106767","1970-05-20",64.94,42.98,0.00,0.00,
"CA001106767","1970-05-21",59.00,46.94,15.00,0.00,
"CA001106767","1970-05-22",62.96,50.00,0.00,0.00,
"CA001106767","1970-05-23",66.02,48.02,0.00,0.00,
"CA001106767","1970-05-24",69.08,41.00,0.00,0.00,
"CA001106767","1970-05-25",73.04,49.10,0.00,0.00,
"CA001106767","1970-05-26",60.98,49.10,0.00,0.00,
"CA001106767","1970-05-27",60.98,44.06,10.00,0.00,
"CA001106767","1970-05-28",60.08,46.94,18.00,0.00,
"CA001106767","1970-05-29",62.06,46.04,0.00,0.00,
"CA001106767","1970-05-30",60.08,44.06,0.00,0.00,
"CA001106767","1970-05-31",69.98,44.06,0.00,0.00,
"CA001106767","1970-06-01",,,,0.00,
"CA001106767","1970-06-02",,,,0.00,
"CA001106767","1970-06-03",,,,0.00,
"CA001106767","1970-06-04",,,,0.00,
"CA001106767","1970-06-05",,,,0.00,
"CA001106767","1970-06-06",,,,0.00,
"CA001106767","1970-06-07",,,,0.00,
"CA001106767","1970-06-08",,,,0.00,
"CA001106767","1970-06-09",,,,0.00,
"CA001106767","1970-06-10",,,,0.00,
"CA001106767","1970-06-11",,,,0.00,
"CA001106767","1970-06-12",,,,0.00,
"CA001106767","1970-06-13",,,,0.00,
"CA001106767","1970-06-14",,,,0.00,
"CA001106767","1970-06-15",,,,0.00,
"CA001106767","1970-06-16",,,,0.00,
"CA001106767","1970-06-17",,,,0.00,
"CA001106767","1970-06-18",,,,0.00,
"CA001106767","1970-06-19",,,,0.00,
"CA001106767","1970-06-20",,,,0.00,
"CA001106767","1970-06-21",,,,0.00,
"CA001106767","1970-06-22",,,,0.00,
"CA001106767","1970-06-23",,,,0.00,
"CA001106767","1970-06-24",,,,0.00,
"CA001106767","1970-06-25",,,,0.00,
"CA001106767","1970-06-26",,,,0.00,
"CA001106767","1970-06-27",,,,0.00,
"CA001106767","1970-06-28",,,,0.00,
"CA001106767","1970-06-29",,,,0.00,
"CA001106767","1970-06-30",,,,0.00,
"CA001106767","1970-08-01",73.04,46.94,0.00,0.00,
"CA001106767","1970-08-02",67.10,55.04,0.00,0.00,
"CA001106767","1970-08-03",69.08,53.06,0.00,0.00,
"CA001106767","1970-08-04",71.96,50.00,0.00,0.00,
"CA001106767","1970-08-05",74.12,51.98,0.00,0.00,
"CA001106767","1970-08-06",73.04,53.06,15.00,0.00,
"CA001106767","1970-08-07",73.04,55.94,0.00,0.00,
"CA001106767","1970-08-08",71.06,53.06,0.00,0.00,
"CA001106767","1970-08-09",71.96,48.02,0.00,0.00,
"CA001106767","1970-08-10",74.12,49.10,0.00,0.00,
"CA001106767","1970-08-11",83.12,51.98,0.00,0.00,
"CA001106767","1970-08-12",68.00,51.98,28.00,0.00,
"CA001106767","1970-08-13",73.04,58.10,0.00,0.00,
"CA001106767","1970-08-14",71.96,44.96,0.00,0.00,
"CA001106767","1970-08-15",80.06,46.94,0.00,0.00,
"CA001106767","1970-08-16",69.08,46.94,0.00,0.00,
"CA001106767","1970-08-17",69.98,44.96,0.00,0.00,
"CA001106767","1970-08-18",71.06,44.96,0.00,0.00,
"CA001106767","1970-08-19",74.12,44.06,0.00,0.00,
"CA001106767","1970-08-20",73.04,44.06,0.00,0.00,
"CA001106767","1970-08-21",73.04,44.96,0.00,0.00,
"CA001106767","1970-08-22",75.02,46.94,0.00,0.00,
"CA001106767","1970-08-23",78.08,51.08,0.00,0.00,
"CA001106767","1970-08-24",67.10,51.08,0.00,0.00,
"CA001106767","1970-08-25",64.04,57.02,0.00,0.00,
"CA001106767","1970-08-26",,55.94,0.00,0.00,
"CA001106767","1970-08-27",,,15.00,0.00,
"CA001106767","1970-08-28",69.98,48.02,0.00,0.00,
"CA001106767","1970-08-29",71.06,48.02,0.00,0.00,
"CA001106767","1970-08-30",71.96,42.98,0.00,0.00,
"CA001106767","1970-08-31",71.96,42.98,0.00,0.00,
"CA001106767","1970-09-01",64.94,57.02,0.00,0.00,
"CA001106767","1970-09-02",66.02,49.10,185.00,0.00,
"CA001106767","1970-09-03",71.06,55.04,0.00,0.00,
"CA001106767","1970-09-04",64.94,44.06,3.00,0.00,
"CA001106767","1970-09-05",58.10,53.06,84.00,0.00,
"CA001106767","1970-09-06",59.00,53.06,51.00,0.00,
"CA001106767","1970-09-07",58.10,39.02,41.00,0.00,
"CA001106767","1970-09-08",67.10,46.94,0.00,0.00,
"CA001106767","1970-09-09",64.04,37.04,0.00,0.00,
"CA001106767","1970-09-10",66.02,39.92,0.00,0.00,
"CA001106767","1970-09-11",66.02,32.00,0.00,0.00,
"CA001106767","1970-09-12",62.96,33.98,0.00,0.00,
"CA001106767","1970-09-13",68.00,30.02,0.00,0.00,
"CA001106767","1970-09-14",64.94,48.02,0.00,0.00,
"CA001106767","1970-09-15",66.02,35.96,0.00,0.00,
"CA001106767","1970-09-16",66.02,44.96,193.00,0.00,
"CA001106767","1970-09-17",67.10,46.94,25.00,0.00,
"CA001106767","1970-09-18",64.94,46.94,33.00,0.00,
"CA001106767","1970-09-19",62.96,51.08,0.00,0.00,
"CA001106767","1970-09-20",64.04,46.04,0.00,0.00,
"CA001106767","1970-09-21",64.04,42.98,104.00,0.00,
"CA001106767","1970-09-22",66.02,44.06,3.00,0.00,
"CA001106767","1970-09-23",60.08,42.08,0.00,0.00,
"CA001106767","1970-09-24",62.96,33.08,0.00,0.00,
"CA001106767","1970-09-25",60.98,33.08,0.00,0.00,
"CA001106767","1970-09-26",64.94,37.04,0.00,0.00,
"CA001106767","1970-09-27",69.98,39.02,0.00,0.00,
"CA001106767","1970-09-28",69.08,39.92,0.00,0.00,
"CA001106767","1970-09-29",71.96,37.04,0.00,0.00,
"CA001106767","1970-09-30",66.02,42.98,0.00,0.00,
